QPF
0.00 0.00 0.00 0.00 0.00 0.00 0.00 0.00 0.00 0.00 0.00 0.00 0.00 0.00 0.00 0.00 0.00 0.00 0.00 0.00 0.00 0.00 0.00 0.00 0.00 0.00 0.00 0.00 0.00 0.00 0.00 0.00 0.00 0.00 0.00 0.00 0.00 0.00 0.00 0.00 0.00 0.00 0.00 0.00 0.00 0.00 0.00 0.00 0.00
0.00 0.00 0.00 0.00 0.00 0.00 0.00 0.00 0.00 0.00 0.00 0.00 0.00 0.00 0.00 0.00 0.00 0.00 0.00 0.00 0.00 0.00 0.00 0.00 0.00 0.00 0.00 0.00 0.00 0.00 0.00 0.00 0.00 0.00 0.00 0.00 0.00 0.00 0.00 0.00 0.00 0.00 0.00 0.00 0.00 0.00 0.00 0.00 0.00
0.00 0.00 0.00 0.00 0.00 0.00 0.00 0.00 0.00 0.00 0.00 0.00 0.00 0.00 0.00 0.00 0.00 0.00 0.00 0.00 0.00 0.00 0.00 0.00 0.00 0.00 0.00 0.00 0.00 0.00 0.00 0.00 0.00 0.00 0.00 0.00 0.00 0.00 0.00 0.00 0.00 0.00 0.00 0.00 0.00 0.00 0.00 0.00 0.00
0.00 0.00 0.00 0.00 0.00 0.00 0.00 0.00 0.00 0.00 0.00 0.00 0.00 0.00 0.00 0.00 0.00 0.00 0.00 0.00 0.00 0.00 0.00 0.00 0.00 0.00 0.00 0.00 0.00 0.00 0.00 0.00 0.00 0.00 0.00 0.00 0.00 0.00 0.00 0.00 0.00 0.00 0.00 0.00 0.00 0.00 0.00 0.00 0.00
0.00 0.00 0.00 0.00 0.00 0.00 0.00 0.00 0.00 0.00 0.00 0.00 0.00 0.00 0.00 0.00 0.00 0.00 0.00 0.00 0.00 0.00 0.00 0.00 0.00 0.00 0.00 0.00 0.00 0.00 0.00 0.00 0.00 0.00 0.00 0.00 0.00 0.00 0.00 0.00 0.00 0.00 0.00 0.00 0.00 0.00 0.00 0.00 0.00
0.00 0.00 0.00 0.00 0.00 0.00 0.00 0.00 0.00 0.00 0.00 0.00 0.00 0.00 0.00 0.00 0.00 0.00 0.00 0.00 0.00 0.00 0.00 0.00 0.00 0.00 0.00 0.00 0.00 0.00 0.00 0.00 0.00 0.00 0.00 0.00 0.00 0.00 0.00 0.00 0.00 0.00 0.00 0.00 0.00 0.00 0.00 0.00 0.00
0.00 0.00 0.00 0.00 0.00 0.00 0.00 0.00 0.00 0.00 0.00 0.00 0.00 0.00 0.00 0.00 0.00 0.00 0.00 0.00 0.00 0.00 0.00 0.00 0.00 0.01 0.01 0.00 0.00 0.00 0.00 0.00 0.00 0.00 0.00 0.00 0.00 0.00 0.00 0.00 0.00 0.00 0.00 0.00 0.00 0.00 0.00 0.00 0.00
0.00 0.00 0.00 0.00 0.00 0.00 0.00 0.00 0.00 0.00 0.00 0.00 0.00 0.00 0.00 0.00 0.00 0.00 0.00 0.00 0.00 0.00 0.00 0.00 0.01 0.01 0.01 0.01 0.01 0.00 0.00 0.00 0.00 0.00 0.00 0.00 0.00 0.00 0.00 0.00 0.00 0.00 0.00 0.00 0.00 0.00 0.00 0.01 0.01
0.00 0.00 0.00 0.00 0.00 0.00 0.00 0.00 0.00 0.00 0.00 0.00 0.00 0.00 0.00 0.00 0.00 0.00 0.00 0.00 0.00 0.00 0.00 0.01 0.01 0.01 0.01 0.01 0.01 0.01 0.01 0.00 0.00 0.00 0.00 0.00 0.00 0.00 0.00 0.00 0.00 0.00 0.01 0.01 0.01 0.01 0.01 0.01 0.01
0.00 0.00 0.00 0.00 0.00 0.00 0.00 0.00 0.00 0.00 0.00 0.00 0.00 0.00 0.00 0.00 0.00 0.00 0.00 0.00 0.00 0.00 0.01 0.01 0.01 0.02 0.02 0.01 0.01 0.01 0.01 0.01 0.01 0.01 0.00 0.00 0.00 0.00 0.00 0.00 0.00 0.01 0.01 0.02 0.02 0.04 0.04 0.03 0.03
0.00 0.00 0.00 0.00 0.00 0.00 0.00 0.00 0.00 0.00 0.00 0.00 0.00 0.00 0.00 0.00 0.00 0.00 0.00 0.00 0.00 0.00 0.00 0.01 0.02 0.02 0.03 0.02 0.02 0.02 0.01 0.02 0.01 0.01 0.01 0.01 0.01 0.01 0.00 0.00 0.00 0.01 0.02 0.03 0.05 0.09 0.08 0.09 0.11
0.00 0.00 0.00 0.00 0.00 0.00 0.00 0.00 0.00 0.00 0.00 0.00 0.00 0.00 0.00 0.00 0.00 0.00 0.00 0.00 0.00 0.00 0.01 0.01 0.01 0.01 0.02 0.02 0.02 0.02 0.02 0.02 0.02 0.03 0.03 0.03 0.02 0.02 0.01 0.01 0.02 0.02 0.02 0.06 0.11 0.16 0.16 0.16 0.17
0.00 0.00 0.00 0.00 0.00 0.00 0.00 0.00 0.00 0.00 0.00 0.00 0.00 0.00 0.00 0.00 0.00 0.01 0.01 0.00 0.00 0.01 0.01 0.01 0.01 0.01 0.02 0.02 0.02 0.02 0.02 0.02 0.02 0.03 0.03 0.04 0.04 0.03 0.03 0.03 0.05 0.05 0.06 0.09 0.13 0.16 0.17 0.19 0.21
0.00 0.00 0.00 0.00 0.00 0.00 0.00 0.00 0.00 0.00 0.00 0.00 0.00 0.00 0.00 0.00 0.00 0.00 0.01 0.00 0.01 0.03 0.03 0.03 0.03 0.04 0.04 0.04 0.03 0.02 0.01 0.01 0.02 0.03 0.06 0.08 0.08 0.07 0.08 0.08 0.10 0.09 0.10 0.14 0.20 0.22 0.23 0.22 0.22
0.00 0.00 0.00 0.00 0.00 0.00 0.00 0.00 0.00 0.00 0.00 0.00 0.00 0.00 0.00 0.00 0.00 0.01 0.01 0.02 0.02 0.04 0.05 0.06 0.07 0.07 0.05 0.03 0.02 0.03 0.04 0.03 0.02 0.04 0.08 0.12 0.12 0.13 0.14 0.15 0.14 0.13 0.17 0.19 0.21 0.22 0.22 0.19 0.15
0.00 0.00 0.00 0.00 0.00 0.00 0.00 0.00 0.00 0.00 0.00 0.00 0.00 0.00 0.00 0.01 0.01 0.01 0.02 0.02 0.03 0.04 0.05 0.07 0.09 0.07 0.05 0.05 0.07 0.05 0.04 0.03 0.03 0.06 0.11 0.15 0.19 0.20 0.21 0.19 0.17 0.18 0.19 0.18 0.18 0.18 0.18 0.17 0.16
0.00 0.00 0.00 0.00 0.00 0.00 0.00 0.00 0.00 0.00 0.00 0.00 0.00 0.00 0.01 0.01 0.01 0.02 0.02 0.02 0.02 0.03 0.05 0.08 0.08 0.07 0.06 0.07 0.07 0.05 0.04 0.05 0.07 0.12 0.18 0.20 0.22 0.25 0.28 0.26 0.23 0.22 0.19 0.16 0.13 0.14 0.13 0.13 0.13
0.00 0.00 0.00 0.00 0.00 0.00 0.00 0.00 0.00 0.00 0.00 0.00 0.00 0.01 0.01 0.01 0.02 0.02 0.02 0.03 0.03 0.05 0.07 0.07 0.06 0.06 0.03 0.03 0.03 0.06 0.07 0.10 0.16 0.24 0.31 0.32 0.33 0.36 0.39 0.36 0.31 0.25 0.20 0.17 0.14 0.12 0.09 0.08 0.07
0.00 0.00 0.00 0.00 0.00 0.00 0.00 0.00 0.00 0.00 0.00 0.00 0.00 0.01 0.01 0.01 0.02 0.02 0.02 0.04 0.05 0.05 0.05 0.05 0.05 0.05 0.04 0.03 0.03 0.06 0.10 0.16 0.23 0.32 0.38 0.43 0.45 0.43 0.44 0.40 0.31 0.25 0.20 0.17 0.13 0.10 0.07 0.05 0.04
0.00 0.00 0.00 0.00 0.00 0.00 0.00 0.00 0.00 0.00 0.00 0.00 0.00 0.01 0.00 0.01 0.01 0.02 0.02 0.03 0.02 0.03 0.03 0.03 0.02 0.03 0.03 0.02 0.03 0.04 0.07 0.11 0.16 0.22 0.29 0.32 0.34 0.37 0.38 0.37 0.31 0.22 0.18 0.15 0.12 0.10 0.06 0.04 0.03
0.00 0.00 0.00 0.00 0.00 0.00 0.00 0.01 0.00 0.00 0.00 0.00 0.00 0.00 0.00 0.01 0.01 0.01 0.01 0.01 0.01 0.01 0.01 0.01 0.01 0.01 0.01 0.01 0.02 0.02 0.04 0.06 0.08 0.09 0.13 0.17 0.20 0.23 0.24 0.25 0.26 0.21 0.16 0.12 0.10 0.09 0.07 0.04 0.02
0.00 0.00 0.00 0.00 0.00 0.00 0.00 0.02 0.01 0.00 0.00 0.00 0.00 0.00 0.00 0.00 0.00 0.00 0.00 0.00 0.00 0.00 0.00 0.00 0.00 0.00 0.00 0.00 0.01 0.01 0.02 0.03 0.04 0.05 0.06 0.08 0.11 0.14 0.16 0.16 0.16 0.15 0.12 0.09 0.06 0.05 0.05 0.05 0.02
0.00 0.00 0.00 0.00 0.00 0.00 0.00 0.01 0.02 0.00 0.00 0.00 0.00 0.00 0.00 0.00 0.00 0.00 0.00 0.00 0.00 0.00 0.00 0.00 0.00 0.00 0.00 0.00 0.00 0.00 0.01 0.01 0.02 0.02 0.04 0.05 0.08 0.10 0.11 0.13 0.12 0.12 0.10 0.08 0.07 0.05 0.04 0.04 0.02
0.00 0.00 0.00 0.00 0.00 0.01 0.00 0.01 0.04 0.01 0.00 0.00 0.00 0.00 0.00 0.00 0.00 0.00 0.00 0.00 0.00 0.00 0.00 0.00 0.00 0.00 0.00 0.00 0.00 0.00 0.00 0.00 0.01 0.01 0.01 0.03 0.05 0.06 0.08 0.09 0.11 0.12 0.12 0.11 0.09 0.07 0.06 0.06 0.04
0.01 0.01 0.01 0.00 0.00 0.01 0.01 0.02 0.04 0.01 0.00 0.00 0.00 0.00 0.00 0.00 0.00 0.00 0.00 0.00 0.00 0.00 0.00 0.00 0.00 0.00 0.00 0.00 0.00 0.00 0.00 0.00 0.00 0.00 0.00 0.00 0.01 0.02 0.04 0.06 0.07 0.09 0.11 0.13 0.11 0.10 0.09 0.08 0.07
0.00 0.01 0.01 0.01 0.01 0.02 0.02 0.05 0.03 0.01 0.01 0.00 0.00 0.00 0.00 0.00 0.00 0.00 0.00 0.00 0.00 0.00 0.00 0.00 0.00 0.00 0.00 0.00 0.00 0.00 0.00 0.00 0.00 0.00 0.00 0.00 0.00 0.01 0.01 0.03 0.04 0.07 0.08 0.10 0.11 0.12 0.12 0.12 0.10
0.00 0.00 0.00 0.01 0.01 0.02 0.03 0.05 0.03 0.01 0.01 0.00 0.00 0.00 0.00 0.00 0.00 0.00 0.00 0.00 0.00 0.00 0.00 0.00 0.00 0.00 0.00 0.00 0.00 0.00 0.00 0.00 0.00 0.00 0.00 0.00 0.00 0.00 0.00 0.01 0.02 0.03 0.05 0.07 0.09 0.11 0.14 0.15 0.14
0.00 0.00 0.00 0.00 0.01 0.02 0.02 0.04 0.05 0.02 0.00 0.00 0.00 0.00 0.00 0.00 0.00 0.00 0.00 0.00 0.00 0.00 0.00 0.00 0.00 0.00 0.00 0.00 0.00 0.00 0.00 0.00 0.00 0.00 0.00 0.00 0.00 0.00 0.00 0.00 0.01 0.01 0.02 0.03 0.05 0.07 0.11 0.15 0.17
0.00 0.00 0.00 0.00 0.00 0.01 0.00 0.01 0.01 0.00 0.00 0.00 0.00 0.00 0.00 0.00 0.00 0.00 0.00 0.00 0.00 0.00 0.00 0.00 0.00 0.00 0.00 0.00 0.00 0.00 0.00 0.00 0.00 0.00 0.00 0.00 0.00 0.00 0.00 0.00 0.00 0.00 0.01 0.01 0.02 0.05 0.08 0.12 0.16
0.00 0.00 0.00 0.00 0.00 0.00 0.00 0.00 0.00 0.00 0.00 0.00 0.00 0.00 0.00 0.00 0.00 0.00 0.00 0.00 0.00 0.00 0.00 0.00 0.00 0.00 0.00 0.00 0.00 0.00 0.00 0.00 0.00 0.00 0.00 0.00 0.00 0.00 0.00 0.00 0.00 0.00 0.00 0.00 0.01 0.02 0.04 0.07 0.12
MSLP
1012.10 1012.76 1013.31 1013.62 1013.62 1013.28 1012.63 1011.80 1010.90 1010.10 1009.49 1009.12 1008.98 1009.00 1009.07 1009.11 1009.05 1008.89 1008.68 1008.52 1008.51 1008.72 1009.17 1009.85 1010.66 1011.48 1012.19 1012.71 1013.00 1013.09 1013.06 1012.99 1012.98 1013.11 1013.38 1013.77 1014.22 1014.65 1015.01 1015.25 1015.40 1015.47 1015.53 1015.62 1015.77 1015.98 1016.22 1016.46 1016.65
1012.21 1012.84 1013.31 1013.51 1013.36 1012.87 1012.09 1011.14 1010.17 1009.32 1008.70 1008.35 1008.24 1008.31 1008.44 1008.55 1008.57 1008.51 1008.41 1008.36 1008.44 1008.73 1009.25 1009.98 1010.81 1011.65 1012.37 1012.90 1013.20 1013.32 1013.31 1013.28 1013.29 1013.42 1013.68 1014.02 1014.40 1014.76 1015.04 1015.22 1015.33 1015.40 1015.48 1015.62 1015.83 1016.10 1016.40 1016.67 1016.86
1012.31 1012.85 1013.19 1013.23 1012.93 1012.30 1011.41 1010.41 1009.42 1008.59 1008.01 1007.71 1007.67 1007.80 1008.00 1008.18 1008.29 1008.32 1008.31 1008.34 1008.50 1008.86 1009.42 1010.16 1010.99 1011.81 1012.52 1013.04 1013.36 1013.51 1013.54 1013.55 1013.60 1013.74 1013.97 1014.27 1014.59 1014.86 1015.06 1015.19 1015.26 1015.33 1015.44 1015.62 1015.90 1016.23 1016.57 1016.87 1017.06
1012.40 1012.81 1012.98 1012.85 1012.40 1011.66 1010.72 1009.70 1008.75 1008.00 1007.51 1007.30 1007.34 1007.54 1007.81 1008.05 1008.22 1008.31 1008.37 1008.47 1008.69 1009.08 1009.65 1010.37 1011.17 1011.95 1012.62 1013.12 1013.44 1013.61 1013.68 1013.73 1013.82 1013.98 1014.21 1014.48 1014.74 1014.94 1015.08 1015.16 1015.21 1015.28 1015.42 1015.65 1015.98 1016.36 1016.73 1017.03 1017.21
1012.47 1012.72 1012.72 1012.42 1011.85 1011.04 1010.09 1009.12 1008.26 1007.63 1007.25 1007.15 1007.27 1007.54 1007.85 1008.12 1008.33 1008.46 1008.56 1008.70 1008.95 1009.35 1009.91 1010.59 1011.33 1012.04 1012.65 1013.10 1013.41 1013.58 1013.69 1013.78 1013.90 1014.09 1014.32 1014.57 1014.80 1014.96 1015.06 1015.11 1015.16 1015.24 1015.41 1015.68 1016.05 1016.45 1016.84 1017.13 1017.28
1012.50 1012.59 1012.42 1011.99 1011.33 1010.49 1009.59 1008.72 1007.99 1007.49 1007.25 1007.25 1007.43 1007.73 1008.04 1008.32 1008.53 1008.67 1008.79 1008.95 1009.21 1009.60 1010.13 1010.76 1011.43 1012.05 1012.59 1012.99 1013.25 1013.42 1013.54 1013.66 1013.82 1014.03 1014.27 1014.52 1014.74 1014.89 1014.98 1015.02 1015.07 1015.18 1015.37 1015.67 1016.05 1016.46 1016.83 1017.10 1017.21
1012.46 1012.40 1012.10 1011.57 1010.87 1010.06 1009.24 1008.51 1007.93 1007.57 1007.44 1007.51 1007.73 1008.02 1008.31 1008.55 1008.73 1008.85 1008.97 1009.14 1009.41 1009.79 1010.28 1010.86 1011.45 1011.99 1012.44 1012.77 1013.00 1013.14 1013.26 1013.39 1013.57 1013.80 1014.06 1014.32 1014.53 1014.69 1014.78 1014.84 1014.91 1015.04 1015.25 1015.56 1015.93 1016.32 1016.67 1016.90 1016.98
1012.31 1012.13 1011.74 1011.17 1010.48 1009.74 1009.04 1008.45 1008.02 1007.79 1007.75 1007.86 1008.07 1008.32 1008.55 1008.74 1008.87 1008.96 1009.08 1009.25 1009.51 1009.88 1010.35 1010.87 1011.40 1011.86 1012.24 1012.51 1012.68 1012.80 1012.91 1013.04 1013.22 1013.46 1013.72 1013.98 1014.21 1014.37 1014.48 1014.56 1014.65 1014.79 1015.01 1015.31 1015.66 1016.02 1016.33 1016.52 1016.56
1012.02 1011.77 1011.33 1010.77 1010.14 1009.51 1008.95 1008.51 1008.22 1008.09 1008.11 1008.24 1008.42 1008.60 1008.76 1008.87 1008.95 1009.01 1009.11 1009.28 1009.55 1009.91 1010.36 1010.84 1011.30 1011.71 1012.02 1012.23 1012.36 1012.45 1012.54 1012.66 1012.84 1013.07 1013.32 1013.57 1013.79 1013.96 1014.08 1014.17 1014.27 1014.42 1014.64 1014.92 1015.24 1015.56 1015.82 1015.98 1016.00
1011.61 1011.33 1010.91 1010.40 1009.86 1009.37 1008.96 1008.66 1008.50 1008.46 1008.51 1008.63 1008.76 1008.88 1008.96 1009.00 1009.03 1009.06 1009.15 1009.32 1009.58 1009.94 1010.35 1010.80 1011.21 1011.56 1011.83 1012.00 1012.10 1012.17 1012.23 1012.34 1012.49 1012.69 1012.92 1013.15 1013.34 1013.49 1013.61 1013.70 1013.80 1013.94 1014.14 1014.40 1014.69 1014.98 1015.21 1015.34 1015.35
1011.14 1010.87 1010.49 1010.08 1009.67 1009.32 1009.07 1008.91 1008.86 1008.89 1008.97 1009.07 1009.15 1009.21 1009.22 1009.21 1009.20 1009.22 1009.29 1009.45 1009.70 1010.03 1010.41 1010.81 1011.18 1011.48 1011.71 1011.85 1011.93 1011.98 1012.04 1012.12 1012.24 1012.40 1012.58 1012.76 1012.91 1013.02 1013.11 1013.18 1013.27 1013.40 1013.58 1013.81 1014.08 1014.33 1014.54 1014.66 1014.68
1010.67 1010.44 1010.15 1009.85 1009.59 1009.40 1009.30 1009.28 1009.32 1009.41 1009.51 1009.60 1009.65 1009.67 1009.64 1009.60 1009.57 1009.57 1009.63 1009.77 1009.98 1010.26 1010.59 1010.92 1011.23 1011.49 1011.68 1011.80 1011.88 1011.92 1011.96 1012.02 1012.11 1012.21 1012.33 1012.44 1012.53 1012.59 1012.63 1012.67 1012.73 1012.83 1012.99 1013.21 1013.45 1013.69 1013.90 1014.02 1014.05
1010.28 1010.12 1009.93 1009.76 1009.66 1009.62 1009.67 1009.77 1009.91 1010.05 1010.18 1010.27 1010.31 1010.31 1010.28 1010.23 1010.18 1010.17 1010.21 1010.30 1010.45 1010.66 1010.90 1011.15 1011.38 1011.58 1011.74 1011.85 1011.92 1011.97 1012.00 1012.04 1012.08 1012.13 1012.17 1012.20 1012.21 1012.20 1012.19 1012.18 1012.21 1012.30 1012.44 1012.64 1012.88 1013.12 1013.33 1013.47 1013.53
1010.05 1009.96 1009.88 1009.85 1009.88 1010.00 1010.17 1010.39 1010.61 1010.81 1010.96 1011.07 1011.13 1011.14 1011.11 1011.07 1011.03 1011.00 1011.00 1011.03 1011.10 1011.19 1011.32 1011.46 1011.61 1011.75 1011.86 1011.96 1012.03 1012.08 1012.11 1012.12 1012.12 1012.10 1012.07 1012.01 1011.94 1011.86 1011.79 1011.75 1011.76 1011.83 1011.97 1012.16 1012.40 1012.65 1012.87 1013.03 1013.11
1009.99 1009.97 1009.99 1010.08 1010.25 1010.49 1010.78 1011.09 1011.38 1011.62 1011.81 1011.95 1012.03 1012.06 1012.06 1012.04 1012.00 1011.96 1011.90 1011.86 1011.82 1011.80 1011.80 1011.82 1011.87 1011.93 1012.01 1012.09 1012.15 1012.20 1012.22 1012.21 1012.17 1012.08 1011.97 1011.84 1011.70 1011.56 1011.45 1011.38 1011.38 1011.44 1011.58 1011.79 1012.03 1012.29 1012.52 1012.70 1012.80
1010.08 1010.12 1010.22 1010.42 1010.70 1011.05 1011.43 1011.80 1012.14 1012.42 1012.64 1012.79 1012.90 1012.96 1012.99 1012.99 1012.96 1012.89 1012.79 1012.66 1012.52 1012.37 1012.25 1012.16 1012.11 1012.11 1012.14 1012.20 1012.26 1012.30 1012.31 1012.27 1012.17 1012.03 1011.85 1011.65 1011.45 1011.27 1011.14 1011.07 1011.07 1011.15 1011.30 1011.51 1011.76 1012.02 1012.26 1012.44 1012.55
1010.25 1010.34 1010.51 1010.79 1011.16 1011.59 1012.03 1012.45 1012.82 1013.11 1013.33 1013.50 1013.62 1013.70 1013.75 1013.76 1013.73 1013.65 1013.51 1013.31 1013.08 1012.84 1012.61 1012.42 1012.30 1012.24 1012.24 1012.28 1012.33 1012.36 1012.34 1012.26 1012.11 1011.91 1011.68 1011.43 1011.19 1011.00 1010.87 1010.81 1010.84 1010.94 1011.12 1011.34 1011.58 1011.83 1012.05 1012.22 1012.32
1010.43 1010.56 1010.79 1011.14 1011.57 1012.05 1012.53 1012.96 1013.33 1013.61 1013.81 1013.96 1014.08 1014.16 1014.22 1014.25 1014.22 1014.13 1013.97 1013.73 1013.44 1013.13 1012.84 1012.59 1012.42 1012.33 1012.31 1012.33 1012.36 1012.36 1012.31 1012.19 1011.99 1011.74 1011.46 1011.18 1010.93 1010.75 1010.64 1010.63 1010.70 1010.84 1011.03 1011.25 1011.48 1011.70 1011.89 1012.02 1012.08
1010.56 1010.72 1011.01 1011.41 1011.89 1012.40 1012.89 1013.31 1013.65 1013.89 1014.05 1014.16 1014.24 1014.31 1014.37 1014.40 1014.38 1014.29 1014.13 1013.88 1013.58 1013.25 1012.94 1012.67 1012.49 1012.39 1012.35 1012.36 1012.37 1012.35 1012.26 1012.09 1011.84 1011.54 1011.23 1010.93 1010.69 1010.54 1010.48 1010.52 1010.64 1010.82 1011.03 1011.25 1011.45 1011.62 1011.74 1011.81 1011.82
1010.61 1010.80 1011.14 1011.59 1012.11 1012.64 1013.12 1013.51 1013.79 1013.97 1014.06 1014.11 1014.15 1014.18 1014.22 1014.25 1014.24 1014.17 1014.03 1013.80 1013.52 1013.22 1012.93 1012.68 1012.51 1012.42 1012.40 1012.40 1012.39 1012.33 1012.20 1011.98 1011.69 1011.35 1011.02 1010.72 1010.51 1010.40 1010.40 1010.50 1010.68 1010.89 1011.11 1011.30 1011.46 1011.56 1011.61 1011.60 1011.54
1010.57 1010.81 1011.20 1011.70 1012.25 1012.79 1013.25 1013.60 1013.82 1013.92 1013.93 1013.91 1013.88 1013.87 1013.88 1013.90 1013.90 1013.86 1013.76 1013.58 1013.35 1013.10 1012.86 1012.66 1012.53 1012.47 1012.45 1012.45 1012.42 1012.34 1012.16 1011.90 1011.57 1011.21 1010.86 1010.58 1010.40 1010.34 1010.40 1010.56 1010.78 1011.02 1011.24 1011.40 1011.50 1011.52 1011.48 1011.38 1011.26
1010.50 1010.80 1011.25 1011.80 1012.38 1012.93 1013.37 1013.67 1013.82 1013.83 1013.76 1013.66 1013.56 1013.50 1013.48 1013.49 1013.51 1013.50 1013.43 1013.31 1013.15 1012.96 1012.78 1012.63 1012.55 1012.51 1012.51 1012.51 1012.47 1012.36 1012.15 1011.85 1011.49 1011.11 1010.77 1010.51 1010.36 1010.35 1010.46 1010.66 1010.91 1011.17 1011.37 1011.50 1011.54 1011.48 1011.35 1011.18 1010.98
1010.45 1010.82 1011.33 1011.93 1012.55 1013.10 1013.51 1013.77 1013.85 1013.80 1013.65 1013.47 1013.31 1013.20 1013.16 1013.16 1013.18 1013.19 1013.16 1013.09 1012.97 1012.84 1012.71 1012.61 1012.56 1012.55 1012.56 1012.55 1012.50 1012.37 1012.14 1011.82 1011.44 1011.06 1010.72 1010.47 1010.35 1010.37 1010.51 1010.74 1011.01 1011.26 1011.45 1011.54 1011.53 1011.41 1011.22 1010.98 1010.73
1010.48 1010.91 1011.49 1012.14 1012.77 1013.32 1013.71 1013.93 1013.96 1013.84 1013.64 1013.40 1013.20 1013.05 1012.98 1012.97 1012.98 1013.00 1012.99 1012.94 1012.86 1012.75 1012.65 1012.58 1012.55 1012.54 1012.55 1012.54 1012.48 1012.33 1012.09 1011.76 1011.38 1011.00 1010.66 1010.43 1010.32 1010.35 1010.50 1010.73 1011.00 1011.24 1011.41 1011.47 1011.42 1011.27 1011.05 1010.78 1010.50
1010.63 1011.12 1011.74 1012.41 1013.05 1013.59 1013.96 1014.13 1014.12 1013.97 1013.72 1013.46 1013.22 1013.05 1012.96 1012.93 1012.94 1012.95 1012.94 1012.89 1012.81 1012.70 1012.60 1012.52 1012.48 1012.47 1012.46 1012.44 1012.36 1012.21 1011.96 1011.64 1011.27 1010.89 1010.56 1010.33 1010.21 1010.23 1010.36 1010.58 1010.82 1011.04 1011.19 1011.24 1011.19 1011.04 1010.81 1010.55 1010.29
1010.91 1011.43 1012.06 1012.73 1013.36 1013.86 1014.20 1014.34 1014.30 1014.12 1013.86 1013.58 1013.34 1013.17 1013.07 1013.03 1013.02 1013.01 1012.97 1012.89 1012.78 1012.65 1012.52 1012.41 1012.34 1012.30 1012.27 1012.23 1012.14 1011.98 1011.74 1011.43 1011.06 1010.70 1010.37 1010.12 1009.99 1009.98 1010.07 1010.24 1010.45 1010.63 1010.77 1010.82 1010.79 1010.67 1010.50 1010.29 1010.08
1011.29 1011.81 1012.42 1013.06 1013.64 1014.09 1014.38 1014.49 1014.43 1014.24 1013.98 1013.72 1013.49 1013.32 1013.22 1013.17 1013.14 1013.10 1013.03 1012.91 1012.75 1012.57 1012.39 1012.24 1012.12 1012.04 1011.98 1011.92 1011.82 1011.66 1011.42 1011.12 1010.77 1010.40 1010.07 1009.81 1009.64 1009.58 1009.61 1009.73 1009.88 1010.04 1010.16 1010.23 1010.23 1010.18 1010.08 1009.96 1009.83
1011.73 1012.22 1012.79 1013.35 1013.86 1014.24 1014.47 1014.53 1014.45 1014.27 1014.03 1013.79 1013.59 1013.45 1013.36 1013.30 1013.25 1013.18 1013.06 1012.89 1012.68 1012.45 1012.21 1012.01 1011.84 1011.72 1011.63 1011.54 1011.42 1011.26 1011.02 1010.73 1010.38 1010.02 1009.68 1009.39 1009.18 1009.06 1009.03 1009.08 1009.17 1009.29 1009.40 1009.48 1009.54 1009.56 1009.56 1009.55 1009.53
1012.20 1012.63 1013.12 1013.59 1013.99 1014.29 1014.44 1014.46 1014.36 1014.19 1013.98 1013.78 1013.61 1013.49 1013.42 1013.36 1013.29 1013.19 1013.03 1012.82 1012.56 1012.28 1012.00 1011.75 1011.54 1011.38 1011.25 1011.13 1010.99 1010.82 1010.58 1010.29 1009.95 1009.58 1009.22 1008.90 1008.65 1008.47 1008.37 1008.35 1008.38 1008.45 1008.54 1008.64 1008.75 1008.85 1008.95 1009.05 1009.14
1012.65 1013.02 1013.40 1013.76 1014.05 1014.24 1014.32 1014.29 1014.18 1014.01 1013.84 1013.67 1013.55 1013.46 1013.40 1013.34 1013.26 1013.13 1012.94 1012.70 1012.40 1012.09 1011.78 1011.49 1011.25 1011.06 1010.89 1010.74 1010.58 1010.38 1010.13 1009.83 1009.48 1009.11 1008.74 1008.39 1008.10 1007.86 1007.70 1007.61 1007.58 1007.60 1007.67 1007.77 1007.90 1008.06 1008.25 1008.45 1008.65
Thickness
5828 5829 5830 5823 5813 5819 5827 5837 5845 5846 5852 5861 5861 5857 5851 5847 5839 5833 5851 5860 5856 5849 5839 5827 5821 5817 5813 5810 5807 5805 5803 5800 5797 5793 5790 5787 5784 5782 5779 5776 5773 5771 5769 5767 5765 5763 5762 5759 5758
5833 5831 5825 5820 5818 5824 5827 5839 5841 5846 5855 5861 5860 5855 5851 5851 5853 5849 5851 5853 5851 5845 5836 5827 5818 5814 5811 5808 5805 5802 5799 5797 5794 5791 5788 5785 5782 5780 5777 5775 5772 5770 5768 5766 5764 5762 5760 5758 5756
5833 5831 5824 5824 5826 5825 5827 5842 5845 5853 5860 5858 5854 5856 5851 5847 5849 5849 5851 5850 5846 5840 5833 5824 5816 5811 5808 5805 5802 5799 5796 5793 5790 5788 5785 5783 5780 5778 5776 5773 5771 5769 5766 5764 5762 5760 5758 5757 5755
5829 5824 5824 5822 5826 5836 5839 5846 5851 5853 5857 5858 5854 5848 5850 5849 5851 5851 5849 5847 5841 5835 5829 5820 5812 5808 5804 5801 5798 5795 5792 5790 5787 5785 5782 5780 5778 5776 5774 5771 5769 5767 5765 5763 5761 5759 5757 5754 5753
5828 5824 5821 5825 5831 5840 5849 5853 5854 5850 5850 5854 5853 5844 5841 5847 5851 5849 5844 5842 5836 5832 5826 5817 5809 5804 5800 5797 5794 5792 5789 5786 5784 5782 5779 5777 5776 5773 5771 5769 5767 5765 5763 5761 5759 5757 5755 5753 5751
5821 5824 5817 5821 5828 5838 5848 5854 5854 5850 5850 5853 5851 5844 5839 5844 5844 5842 5841 5837 5834 5829 5825 5814 5805 5801 5797 5794 5791 5788 5786 5783 5781 5778 5776 5774 5772 5771 5769 5767 5765 5763 5761 5759 5757 5755 5753 5751 5750
5818 5819 5817 5821 5822 5829 5841 5853 5851 5847 5846 5851 5855 5843 5839 5841 5842 5840 5837 5834 5832 5828 5822 5812 5805 5798 5794 5790 5788 5785 5782 5780 5777 5774 5772 5770 5769 5767 5765 5763 5762 5760 5758 5756 5755 5753 5751 5749 5748
5825 5820 5816 5821 5819 5824 5842 5850 5853 5849 5846 5856 5856 5842 5837 5837 5840 5837 5832 5828 5826 5823 5818 5811 5806 5799 5794 5789 5784 5781 5778 5775 5773 5771 5769 5767 5766 5764 5762 5760 5758 5756 5755 5753 5752 5751 5749 5748 5747
5821 5808 5810 5818 5818 5826 5840 5839 5849 5857 5850 5848 5850 5846 5846 5842 5837 5830 5823 5820 5818 5816 5814 5810 5805 5798 5794 5790 5785 5779 5775 5772 5769 5768 5766 5764 5765 5765 5762 5759 5757 5753 5751 5750 5749 5748 5747 5746 5746
5813 5804 5814 5824 5826 5827 5831 5832 5838 5844 5839 5835 5836 5836 5838 5834 5829 5823 5818 5813 5810 5808 5808 5806 5802 5797 5793 5790 5785 5780 5777 5774 5769 5769 5766 5764 5764 5763 5762 5760 5754 5750 5748 5747 5747 5746 5745 5744 5749
5813 5808 5818 5822 5826 5826 5826 5829 5833 5831 5824 5822 5823 5826 5827 5826 5823 5821 5817 5813 5809 5805 5804 5803 5799 5793 5790 5786 5783 5780 5777 5774 5769 5766 5763 5761 5760 5759 5757 5756 5753 5748 5746 5746 5747 5745 5746 5748 5749
5807 5811 5813 5816 5822 5820 5819 5822 5819 5814 5811 5819 5824 5825 5823 5820 5818 5816 5812 5809 5806 5802 5799 5798 5794 5788 5784 5781 5779 5775 5773 5770 5767 5763 5758 5757 5754 5753 5753 5751 5751 5749 5747 5746 5746 5745 5747 5747 5747
5800 5806 5812 5815 5817 5816 5814 5810 5806 5800 5806 5811 5813 5813 5811 5812 5811 5811 5808 5804 5799 5795 5792 5790 5787 5782 5777 5773 5770 5769 5766 5764 5761 5756 5754 5750 5749 5748 5748 5746 5744 5744 5744 5744 5741 5742 5744 5744 5744
5804 5804 5805 5809 5810 5808 5802 5799 5796 5788 5796 5796 5795 5794 5796 5797 5797 5796 5794 5792 5790 5787 5784 5781 5778 5774 5770 5765 5762 5760 5757 5755 5754 5752 5749 5744 5742 5742 5741 5740 5739 5739 5739 5739 5738 5739 5738 5739 5740
5801 5794 5798 5800 5802 5802 5800 5782 5773 5779 5783 5780 5779 5778 5777 5779 5780 5779 5780 5779 5779 5776 5774 5771 5768 5765 5760 5757 5753 5752 5751 5749 5748 5746 5743 5738 5736 5735 5734 5733 5733 5734 5733 5732 5731 5732 5733 5735 5737
5795 5791 5785 5787 5794 5795 5790 5768 5763 5773 5771 5765 5766 5765 5763 5763 5766 5767 5768 5768 5767 5766 5763 5761 5759 5755 5751 5747 5744 5744 5743 5741 5741 5740 5738 5735 5732 5730 5728 5727 5728 5728 5726 5726 5727 5729 5730 5731 5733
5788 5785 5781 5778 5786 5788 5785 5760 5755 5764 5761 5755 5755 5755 5754 5754 5755 5757 5758 5758 5757 5755 5752 5750 5748 5745 5742 5740 5738 5737 5735 5735 5735 5733 5731 5728 5726 5725 5724 5723 5721 5721 5721 5721 5724 5727 5726 5727 5729
5779 5782 5776 5773 5774 5777 5766 5751 5750 5754 5752 5748 5747 5747 5746 5745 5745 5747 5748 5748 5747 5745 5742 5740 5738 5735 5733 5733 5732 5730 5729 5730 5728 5726 5723 5721 5720 5720 5719 5717 5715 5715 5714 5715 5717 5718 5720 5722 5725
5780 5777 5771 5767 5769 5764 5753 5745 5743 5746 5746 5742 5741 5741 5740 5739 5740 5740 5740 5739 5737 5734 5732 5730 5726 5724 5722 5721 5720 5719 5720 5720 5719 5717 5715 5714 5714 5713 5712 5711 5711 5710 5709 5710 5712 5713 5715 5716 5720
5777 5772 5767 5761 5762 5758 5746 5740 5741 5741 5738 5736 5734 5733 5733 5733 5733 5732 5732 5730 5727 5724 5721 5719 5716 5714 5712 5711 5709 5708 5708 5709 5709 5708 5706 5705 5705 5705 5706 5704 5703 5704 5703 5704 5705 5706 5709 5712 5715
5774 5773 5769 5760 5755 5756 5748 5735 5736 5737 5737 5734 5732 5730 5729 5727 5725 5724 5723 5721 5719 5715 5711 5709 5705 5703 5701 5700 5701 5700 5699 5699 5699 5698 5697 5696 5696 5697 5696 5696 5696 5696 5696 5697 5699 5700 5700 5703 5709
5768 5777 5771 5761 5752 5752 5750 5737 5732 5734 5731 5729 5728 5726 5724 5722 5721 5718 5716 5713 5710 5707 5705 5700 5696 5693 5691 5689 5689 5686 5685 5685 5685 5685 5686 5685 5685 5685 5686 5686 5687 5689 5690 5691 5693 5696 5697 5696 5700
5771 5775 5771 5764 5759 5754 5751 5745 5730 5734 5726 5725 5724 5721 5720 5718 5715 5711 5709 5706 5704 5701 5697 5693 5688 5684 5681 5678 5675 5673 5674 5674 5675 5674 5673 5673 5674 5674 5675 5676 5677 5679 5681 5683 5685 5687 5689 5692 5694
5774 5770 5766 5765 5762 5740 5745 5740 5723 5729 5724 5722 5720 5717 5715 5713 5710 5707 5705 5701 5697 5694 5690 5686 5680 5674 5671 5668 5665 5661 5659 5658 5658 5659 5660 5661 5663 5663 5664 5665 5666 5668 5671 5673 5676 5678 5681 5684 5687
5772 5760 5745 5739 5738 5736 5743 5736 5717 5722 5723 5719 5715 5713 5711 5709 5705 5701 5697 5693 5690 5686 5681 5676 5671 5665 5662 5658 5655 5652 5649 5647 5646 5647 5649 5649 5651 5652 5652 5653 5654 5656 5658 5661 5664 5667 5672 5675 5677
5764 5760 5740 5726 5731 5738 5737 5726 5715 5718 5717 5715 5713 5710 5706 5703 5699 5694 5690 5685 5681 5676 5671 5665 5660 5655 5652 5648 5645 5641 5639 5639 5641 5640 5638 5639 5639 5641 5640 5640 5641 5643 5645 5648 5651 5655 5660 5664 5668
5761 5757 5759 5746 5740 5730 5731 5720 5712 5714 5711 5709 5706 5703 5699 5695 5691 5687 5682 5677 5671 5665 5659 5654 5648 5644 5641 5637 5634 5632 5630 5627 5627 5625 5625 5628 5628 5628 5627 5627 5628 5630 5632 5635 5638 5642 5646 5651 5656
5763 5756 5751 5740 5718 5715 5724 5719 5710 5706 5704 5703 5699 5695 5692 5688 5684 5679 5673 5667 5660 5654 5649 5644 5638 5633 5630 5627 5625 5625 5621 5618 5616 5615 5615 5613 5613 5613 5613 5614 5615 5617 5619 5622 5625 5629 5633 5637 5643
5750 5747 5742 5738 5727 5711 5708 5714 5716 5706 5701 5697 5695 5691 5686 5680 5675 5669 5663 5657 5650 5645 5640 5635 5630 5625 5622 5619 5616 5613 5610 5608 5606 5605 5604 5603 5601 5600 5599 5600 5602 5604 5606 5609 5612 5616 5620 5624 5629
5748 5739 5736 5721 5713 5715 5709 5711 5715 5708 5703 5696 5689 5685 5679 5672 5666 5661 5654 5648 5641 5636 5631 5626 5621 5617 5614 5611 5607 5604 5600 5597 5594 5593 5591 5589 5587 5586 5586 5587 5588 5591 5594 5597 5599 5603 5608 5611 5616